Time,TemperatureF,DewpointF,PressureIn,WindDirection,WindDirectionDegrees,WindSpeedMPH,WindSpeedGustMPH,Humidity,HourlyPrecipIn,Conditions,Clouds,dailyrainin,SoftwareType,DateUTC
2013-08-08 00:00:00,73.4,70.9,30.05,East,93,0.0,0.0,92,0.00,,,0.00,Wunderground v.1.15,2013-08-08 04:00:00,
2013-08-08 00:05:00,73.4,70.9,30.05,N/A,-737280,0.0,-999.0,92,0.00,,,0.00,Wunderground v.1.15,2013-08-08 04:05:00,
2013-08-08 00:10:00,73.5,70.7,30.05,N/A,-737280,0.0,-999.0,91,0.00,,,0.00,Wunderground v.1.15,2013-08-08 04:10:00,
2013-08-08 00:15:00,73.6,70.8,30.05,N/A,-737280,0.0,-999.0,91,0.00,,,0.00,Wunderground v.1.15,2013-08-08 04:15:00,
2013-08-08 00:20:00,73.7,70.9,30.05,N/A,-737280,0.0,-999.0,91,0.00,,,0.00,Wunderground v.1.15,2013-08-08 04:20:00,
2013-08-08 00:25:00,73.7,70.9,30.05,N/A,-737280,0.0,-999.0,91,0.00,,,0.00,Wunderground v.1.15,2013-08-08 04:25:00,
2013-08-08 00:30:00,73.8,71.0,30.05,N/A,-737280,0.0,-999.0,91,0.00,,,0.00,Wunderground v.1.15,2013-08-08 04:30:00,
2013-08-08 00:35:00,73.8,71.0,30.05,East,90,0.0,-999.0,91,0.00,,,0.00,Wunderground v.1.15,2013-08-08 04:35:00,
2013-08-08 00:40:00,73.8,71.0,30.05,N/A,-737280,0.0,-999.0,91,0.00,,,0.00,Wunderground v.1.15,2013-08-08 04:40:00,
2013-08-08 00:45:00,73.8,71.0,30.05,N/A,-737280,0.0,-999.0,91,0.00,,,0.00,Wunderground v.1.15,2013-08-08 04:45:00,
2013-08-08 00:50:00,73.8,71.0,30.05,N/A,-737280,0.0,-999.0,91,0.00,,,0.00,Wunderground v.1.15,2013-08-08 04:50:00,
2013-08-08 00:55:00,73.8,71.0,30.05,N/A,-737280,0.0,-999.0,91,0.00,,,0.00,Wunderground v.1.15,2013-08-08 04:55:00,
2013-08-08 01:00:00,73.8,70.7,30.05,N/A,-737280,0.0,-999.0,90,0.00,,,0.00,Wunderground v.1.15,2013-08-08 05:00:00,
2013-08-08 01:05:00,73.8,70.7,30.05,N/A,-737280,0.0,-999.0,90,0.00,,,0.00,Wunderground v.1.15,2013-08-08 05:05:00,
2013-08-08 01:10:00,73.8,70.7,30.05,N/A,-737280,0.0,-999.0,90,0.00,,,0.00,Wunderground v.1.15,2013-08-08 05:10:00,
2013-08-08 01:15:00,73.8,71.0,30.05,N/A,-737280,0.0,-999.0,91,0.00,,,0.00,Wunderground v.1.15,2013-08-08 05:15:00,
2013-08-08 01:20:00,73.7,70.9,30.05,N/A,-737280,0.0,-999.0,91,0.00,,,0.00,Wunderground v.1.15,2013-08-08 05:20:00,
2013-08-08 01:25:00,73.7,70.9,30.05,N/A,-737280,0.0,-999.0,91,0.00,,,0.00,Wunderground v.1.15,2013-08-08 05:25:00,
2013-08-08 01:30:00,73.6,70.8,30.05,N/A,-737280,0.0,-999.0,91,0.00,,,0.00,Wunderground v.1.15,2013-08-08 05:30:00,
2013-08-08 01:35:00,73.6,70.8,30.05,ESE,113,0.0,-999.0,91,0.00,,,0.00,Wunderground v.1.15,2013-08-08 05:35:00,
2013-08-08 01:40:00,73.6,70.8,30.05,N/A,-737280,0.0,-999.0,91,0.00,,,0.00,Wunderground v.1.15,2013-08-08 05:40:00,
2013-08-08 01:45:00,73.5,70.7,30.05,N/A,-737280,0.0,-999.0,91,0.00,,,0.00,Wunderground v.1.15,2013-08-08 05:45:00,
2013-08-08 01:50:00,73.5,70.7,30.05,N/A,-737280,0.0,-999.0,91,0.00,,,0.00,Wunderground v.1.15,2013-08-08 05:50:00,
2013-08-08 01:55:00,73.4,70.9,30.05,N/A,-737280,0.0,-999.0,92,0.00,,,0.00,Wunderground v.1.15,2013-08-08 05:55:00,
2013-08-08 02:00:00,73.4,70.9,30.05,N/A,-737280,0.0,-999.0,92,0.00,,,0.00,Wunderground v.1.15,2013-08-08 06:00:00,
2013-08-08 02:05:00,73.3,70.8,30.05,N/A,-737280,0.0,-999.0,92,0.00,,,0.00,Wunderground v.1.15,2013-08-08 06:05:00,
2013-08-08 02:10:00,73.3,70.8,30.05,N/A,-737280,0.0,-999.0,92,0.00,,,0.00,Wunderground v.1.15,2013-08-08 06:10:00,
2013-08-08 02:15:00,73.2,70.7,30.05,N/A,-737280,0.0,-999.0,92,0.00,,,0.00,Wunderground v.1.15,2013-08-08 06:15:00,
2013-08-08 02:20:00,73.1,70.6,30.05,N/A,-737280,0.0,-999.0,92,0.00,,,0.00,Wunderground v.1.15,2013-08-08 06:20:00,
2013-08-08 02:25:00,73.1,70.6,30.05,N/A,-737280,0.0,-999.0,92,0.00,,,0.00,Wunderground v.1.15,2013-08-08 06:25:00,
2013-08-08 02:30:00,73.0,70.5,30.05,N/A,-737280,0.0,-999.0,92,0.00,,,0.00,Wunderground v.1.15,2013-08-08 06:30:00,
2013-08-08 02:35:00,73.0,70.5,30.05,N/A,-737280,0.0,-999.0,92,0.00,,,0.00,Wunderground v.1.15,2013-08-08 06:35:00,
2013-08-08 02:40:00,73.0,70.5,30.05,N/A,-737280,0.0,-999.0,92,0.00,,,0.00,Wunderground v.1.15,2013-08-08 06:40:00,
2013-08-08 02:45:00,72.9,70.8,30.05,N/A,-737280,0.0,-999.0,93,0.00,,,0.00,Wunderground v.1.15,2013-08-08 06:45:00,
2013-08-08 02:50:00,72.8,70.7,30.05,N/A,-737280,0.0,-999.0,93,0.00,,,0.00,Wunderground v.1.15,2013-08-08 06:50:00,
2013-08-08 02:55:00,72.8,70.7,30.05,N/A,-737280,0.0,-999.0,93,0.00,,,0.00,Wunderground v.1.15,2013-08-08 06:55:00,
2013-08-08 03:00:00,72.7,70.6,30.05,N/A,-737280,0.0,-999.0,93,0.00,,,0.00,Wunderground v.1.15,2013-08-08 07:00:00,
2013-08-08 03:05:00,72.7,70.6,30.05,N/A,-737280,0.0,-999.0,93,0.00,,,0.00,Wunderground v.1.15,2013-08-08 07:05:00,
2013-08-08 03:10:00,72.6,70.5,30.05,N/A,-737280,0.0,-999.0,93,0.00,,,0.00,Wunderground v.1.15,2013-08-08 07:10:00,
2013-08-08 03:15:00,72.5,70.4,30.05,N/A,-737280,0.0,-999.0,93,0.00,,,0.00,Wunderground v.1.15,2013-08-08 07:15:00,
2013-08-08 03:20:00,72.5,70.4,30.05,N/A,-737280,0.0,-999.0,93,0.00,,,0.00,Wunderground v.1.15,2013-08-08 07:20:00,
2013-08-08 03:25:00,72.4,70.3,30.05,N/A,-737280,0.0,-999.0,93,0.00,,,0.00,Wunderground v.1.15,2013-08-08 07:25:00,
2013-08-08 03:30:00,72.4,70.3,30.05,SE,135,0.0,-999.0,93,0.00,,,0.00,Wunderground v.1.15,2013-08-08 07:30:00,
2013-08-08 03:35:00,72.3,70.2,30.05,N/A,-737280,0.0,-999.0,93,0.00,,,0.00,Wunderground v.1.15,2013-08-08 07:35:00,
2013-08-08 03:40:00,72.3,70.2,30.05,N/A,-737280,0.0,-999.0,93,0.00,,,0.00,Wunderground v.1.15,2013-08-08 07:40:00,
2013-08-08 03:45:00,72.2,70.4,30.05,N/A,-737280,0.0,-999.0,94,0.00,,,0.00,Wunderground v.1.15,2013-08-08 07:45:00,
2013-08-08 03:50:00,72.1,70.3,30.05,N/A,-737280,0.0,-999.0,94,0.00,,,0.00,Wunderground v.1.15,2013-08-08 07:50:00,
2013-08-08 03:55:00,72.0,69.9,30.05,N/A,-737280,0.0,-999.0,93,0.00,,,0.00,Wunderground v.1.15,2013-08-08 07:55:00,
2013-08-08 04:00:00,71.9,69.8,30.05,N/A,-737280,0.0,-999.0,93,0.00,,,0.00,Wunderground v.1.15,2013-08-08 08:00:00,
2013-08-08 04:05:00,71.9,70.1,30.05,N/A,-737280,0.0,-999.0,94,0.00,,,0.00,Wunderground v.1.15,2013-08-08 08:05:00,
2013-08-08 04:10:00,71.8,70.0,30.05,N/A,-737280,0.0,-999.0,94,0.00,,,0.00,Wunderground v.1.15,2013-08-08 08:10:00,
2013-08-08 04:15:00,71.7,69.9,30.05,N/A,-737280,0.0,-999.0,94,0.00,,,0.00,Wunderground v.1.15,2013-08-08 08:15:00,
2013-08-08 04:20:00,71.6,69.8,30.04,N/A,-737280,0.0,-999.0,94,0.00,,,0.00,Wunderground v.1.15,2013-08-08 08:20:00,
2013-08-08 04:25:00,71.5,69.7,30.04,N/A,-737280,0.0,-999.0,94,0.00,,,0.00,Wunderground v.1.15,2013-08-08 08:25:00,
2013-08-08 04:30:00,71.4,69.6,30.05,N/A,-737280,0.0,-999.0,94,0.00,,,0.00,Wunderground v.1.15,2013-08-08 08:30:00,
2013-08-08 04:35:00,71.3,69.5,30.04,N/A,-737280,0.0,-999.0,94,0.00,,,0.00,Wunderground v.1.15,2013-08-08 08:35:00,
2013-08-08 04:40:00,71.3,69.5,30.04,ESE,113,0.0,-999.0,94,0.00,,,0.00,Wunderground v.1.15,2013-08-08 08:40:00,
2013-08-08 04:45:00,71.2,69.4,30.04,N/A,-737280,0.0,-999.0,94,0.00,,,0.00,Wunderground v.1.15,2013-08-08 08:45:00,
2013-08-08 04:50:00,71.1,69.3,30.05,N/A,-737280,0.0,-999.0,94,0.00,,,0.00,Wunderground v.1.15,2013-08-08 08:50:00,
2013-08-08 04:55:00,71.1,69.6,30.05,N/A,-737280,0.0,-999.0,95,0.00,,,0.00,Wunderground v.1.15,2013-08-08 08:55:00,
2013-08-08 05:00:00,71.0,69.5,30.05,N/A,-737280,0.0,-999.0,95,0.00,,,0.00,Wunderground v.1.15,2013-08-08 09:00:00,
2013-08-08 05:05:00,70.9,69.4,30.05,N/A,-737280,0.0,-999.0,95,0.00,,,0.00,Wunderground v.1.15,2013-08-08 09:05:00,
2013-08-08 05:10:00,70.8,69.3,30.05,N/A,-737280,0.0,-999.0,95,0.00,,,0.00,Wunderground v.1.15,2013-08-08 09:10:00,